Location: Bougoudala
(13.2282°N, 4.9477°W)
Time: 10:30:45
(UTC+00:00)

CZ-2C R/B - Pass Details

Date: 29 January 2020
Orbit: 640 x 705 km, 98.4° (Epoch: 19 February)

Event Time Altitude Azimuth Distance (km) Brightness Sun altitude
Exits shadow 19:56:37 42° 1° (N) 929 4.3 -23.7°
Maximum altitude 19:58:06 78° 282° (WNW) 675 3.7 -24.0°
Drops below altitude 10° 20:02:38 10° 197° (SSW) 2,085 6.6 -25.1°
Sets 20:04:53 0° 195° (SSW) 3,008 7.5 -25.6°
